Showing default

YAOGAN-36 05C, 57456

Orbit data source: Space-Track

YAOGAN-36 05C, 57456 is a payload satellite owned by PLA GAD (CN) in LEO that was launched on Wed, 26 Jul 2023 UTC via a CHANG ZHENG 2D launch vehicle from the Xichang Space Center, China (XSC). Payload-class satellites include a variety of spacecraft equipped with specific instruments for various scientific and technological missions. These include communications satellites like Starlink; space stations such as the ISS; scientific satellites like the Hubble; Earth observation satellites from companies like Planet Labs, Umbra, and HawkEye 360; GPS; miniature CubeSats for education and research; and military/defense satellites.

Loading next visibility...
Identifier
57456, 2023-106E
Orbit
LEO
Country
Flag of CNCN / PRC
Related business
Manufacturer
DFH
Mission
Operational Defense Sigint
Bus & Motor
Unknown
Mass
~300 kg wet, ~300 kg dry
Launch date (UTC)
2023-07-26 (3 years ago)
Launch vehicle
CHANG ZHENG 2D
Launch site
Xichang Space Center, China (XSC)
Object type
Payload
Rocket body
Debris
Shape & HBR
Box + 2 Pan, 2.5 m
Radar Cross Section
11.063 m², Large (>1 m²)

Expand to show TLE details & history
Last TLE update: 2 days ago

TLE from 2 days ago
0 YAOGAN-36 05C
1 57456U 23106E   26171.07053891  .00004762  00000-0  23964-3 0  9995
2 57456  34.9939  62.6233 0002004 334.3033  25.7579 15.16626107161304
Epoch: 2026-06-20T01:41Z
TLE epoch observation values (Epoch: 2026-06-20T01:41:34.561Z)
Latitude
-0.00007°
Longitude
128.93875°
Altitude
513.712 km
Speed
7.61 km/s
True Right ascension
04h 10m 29s
True Declination
0° 00' 00"
Sunlit
Object was in daylight at epoch
Visualization orbit readout
Latitude
Unknown
Longitude
Unknown
Altitude
Unknown
Speed
Unknown
Apparent Right ascension
Unknown
Apparent Declination
Unknown
Sunlit
N/A
Visualization observer readout
Local Sidereal Time
21:31:01
Azimuth
Unknown
Elevation
Unknown
Doppler factor
Unknown
Orbital elements
Apogee altitude
520.671 km
Perigee altitude
517.906 km
Semi-major axis
6,897.425 km
Eccentricity
0.0002
Inclination
34.9939°
RAAN
62.6233°
Arg. of periapsis
334.3033°
True anomaly
25.76788°
Mean anomaly
25.7579°
Eccentric anomaly
25.76289°
Mean motion
3.7889 °/min
Orbital period
95.01 mins
BSTAR
0.00023964
Loading maneuver chart data...
Computing Atmospheric mass density...
Loading historical data...
Loading historical data...
Loading historical data...
Loading historical data...
Loading historical data...
Loading historical data...
Loading historical data...
Other satellites on launch #106 in the year 2023 (2023-07-26 UTC)

Documentation

Showing up to 5 results
|